Location: Castrojimeno
(41.3966°N, 3.8473°W)
Time: 20:27:03
(UTC+00:00)

Okean 1-7 Rocket - Pass Details

Date: 15 May 2026
Orbit: 611 x 641 km, 82.5° (Epoch: 8 June)

Event Time Altitude Azimuth Distance (km) Brightness Sun altitude
Rises 21:43:03 0° 355° (N) 2,927 8.0 -20.4°
Reaches altitude 10° 21:45:19 10° 359° (N) 2,020 6.9 -20.7°
Maximum altitude 21:49:45 61° 80° (E) 724 3.7 -21.2°
Enters shadow 21:50:19 55° 116° (ESE) 763 3.6 -21.3°
